GW5072 Weather Reports


time (UTC)temp
F
wind
direction
speed
knots
gust
knots
rain 1hr
in
rain 24hr
in
rain mn
in
humidity
%
barometer
mb
20260901054528 78 41 0.0 0.0 0.00 0.00 0.00 87 1016.0
20260901054016 78 41 0.0 0.0 0.00 0.00 0.00 87 1016.0
20260901053504 79 41 0.0 0.0 0.00 0.00 0.00 87 1016.0
20260901053029 79 41 0.0 0.0 0.00 0.00 0.00 86 1016.0
20260901052509 79 41 0.0 0.0 0.00 0.00 0.00 86 1016.0
20260901052012 79 41 0.0 0.0 0.00 0.00 0.00 86 1015.9
20260901051529 79 41 0.0 0.0 0.00 0.00 0.00 85 1015.9
20260901051009 79 41 0.0 0.0 0.00 0.00 0.00 86 1015.9
20260901050519 79 41 0.0 0.0 0.00 0.00 0.00 86 1015.8
20260901050023 79 41 0.0 0.0 0.00 0.00 0.00 86 1015.8
20260901045517 79 41 0.0 0.0 0.00 0.00 0.00 86 1015.7
20260901045014 79 41 0.0 0.0 0.00 0.00 0.00 86 1015.6
20260901044520 79 41 0.0 0.0 0.00 0.00 0.00 86 1015.6
20260901044013 79 41 0.0 0.0 0.00 0.00 0.00 86 1015.6
20260901043514 79 41 0.0 0.0 0.00 0.00 0.00 86 1015.5
20260901043017 79 41 0.0 0.0 0.00 0.00 0.00 86 1015.6
20260901042516 79 41 0.0 0.0 0.00 0.00 0.00 86 1015.5
20260901042011 79 41 0.0 0.0 0.00 0.00 0.00 86 1015.6
20260901041527 79 41 0.0 0.0 0.00 0.00 0.00 86 1015.5
20260901041014 79 41 0.0 0.0 0.00 0.00 0.00 85 1015.5
20260901040511 79 41 0.0 0.0 0.00 0.00 0.00 85 1015.5
20260901040035 79 41 0.0 0.0 0.00 0.00 0.00 85 1015.4
20260901035514 79 41 0.0 0.0 0.00 0.00 0.00 85 1015.5
20260901035007 79 41 0.0 0.0 0.00 0.00 0.00 85 1015.4
20260901034530 79 41 0.0 0.0 0.00 0.00 0.00 84 1015.2
20260901034011 79 41 0.0 0.0 0.00 0.00 0.00 84 1015.1
20260901033514 80 41 0.0 0.0 0.00 0.00 0.00 84 1014.9
20260901033027 80 41 0.0 0.0 0.00 0.00 0.00 84 1015.0
20260901032513 80 41 0.0 0.0 0.00 0.00 0.00 84 1014.9
20260901032015 80 41 0.0 0.0 0.00 0.00 0.00 84 1014.9
20260901031507 80 41 0.0 0.0 0.00 0.00 0.00 83 1014.8
20260901031009 80 41 0.0 0.0 0.00 0.00 0.00 83 1014.7
20260901030505 80 41 0.0 0.0 0.00 0.00 0.00 83 1014.7
20260901030026 80 41 0.0 0.0 0.00 0.00 0.00 82 1014.7
20260901025507 80 41 0.0 0.0 0.00 0.00 0.00 82 1014.6
20260901025003 80 41 0.0 0.0 0.00 0.00 0.00 82 1014.6
20260901024528 80 41 0.0 0.0 0.00 0.00 0.00 82 1014.6
20260901024006 80 41 0.0 0.0 0.00 0.00 0.00 81 1014.6
20260901023503 81 41 0.0 0.0 0.00 0.00 0.00 80 1014.5
20260901023022 81 41 0.0 0.0 0.00 0.00 0.00 80 1014.5
20260901022505 81 41 0.0 0.0 0.00 0.00 0.00 80 1014.4
20260901022012 81 41 0.0 0.0 0.00 0.00 0.00 79 1014.3
20260901021516 81 41 0.0 0.0 0.00 0.00 0.00 79 1014.3
20260901021004 82 41 0.0 0.0 0.00 0.00 0.00 79 1014.3
20260901020510 82 41 0.0 0.0 0.00 0.00 0.00 78 1014.3
20260901020012 82 41 0.0 0.0 0.00 0.00 0.00 77 1014.2
20260901015502 82 41 0.0 0.0 0.00 0.00 0.00 77 1014.1
20260901015007 83 41 0.0 0.0 0.00 0.00 0.00 77 1014.1
20260901014509 83 41 0.0 0.0 0.00 0.00 0.00 76 1014.1
20260901014012 83 41 0.0 0.0 0.00 0.00 0.00 75 1014.1
20260901013508 83 41 0.0 0.0 0.00 0.00 0.00 75 1014.0
20260901013007 84 41 0.0 0.0 0.00 0.00 0.00 74 1013.9
20260901012516 84 41 0.0 0.0 0.00 0.00 0.00 74 1014.0
20260901012005 84 41 0.0 0.0 0.00 0.00 0.00 73 1014.0
20260901011506 85 41 0.0 0.0 0.00 0.00 0.00 72 1013.9
20260901011008 85 41 0.0 0.0 0.00 0.00 0.00 72 1013.9
20260901010503 85 41 0.0 0.0 0.00 0.00 0.00 71 1013.9
20260901010028 86 41 0.0 0.0 0.00 0.00 0.00 70 1013.8
20260901005508 86 41 0.0 0.0 0.00 0.00 0.00 70 1013.8
20260901005003 86 41 0.0 0.0 0.00 0.00 0.00 70 1013.7
20260901004533 87 41 0.0 0.0 0.00 0.00 0.00 69 1013.8
20260901004003 87 41 0.0 0.0 0.00 0.00 0.00 69 1013.8
20260901003515 87 41 0.0 0.0 0.00 0.00 0.00 68 1013.8
20260901003025 87 41 0.0 0.0 0.00 0.00 0.00 68 1013.9
20260901002504 87 41 0.0 0.0 0.00 0.00 0.00 67 1014.0
20260901002013 88 41 0.0 0.0 0.00 0.00 0.00 67 1013.9
20260901001523 88 41 0.0 0.0 0.00 0.00 0.00 67 1014.0
20260901001003 88 41 0.0 0.0 0.00 0.00 0.00 65 1014.0
20260901000513 88 41 0.0 0.0 0.00 0.00 0.00 65 1014.0
20260901000016 89 41 0.0 0.9 0.00 0.00 0.00 64 1014.1
20260831235515 89 42 0.0 0.9 0.00 0.00 0.00 63 1014.2
20260831235010 90 41 0.0 0.0 0.00 0.00 0.00 63 1014.3
20260831234511 90 41 0.0 0.9 0.00 0.00 0.00 61 1014.3
20260831234012 90 41 0.0 0.9 0.00 0.00 0.00 62 1014.4
20260831233510 91 33 0.0 0.9 0.00 0.00 0.00 61 1014.3
20260831233007 91 33 0.0 0.9 0.00 0.00 0.00 60 1014.3
20260831232512 92 50 0.0 0.9 0.00 0.00 0.00 57 1014.2
20260831232007 92 69 0.0 0.9 0.00 0.00 0.00 57 1014.2
20260831231527 93 77 0.0 0.9 0.00 0.00 0.00 57 1014.1
20260831231010 93 96 0.0 1.7 0.00 0.00 0.00 55 1014.1
20260831230504 93 94 0.0 1.7 0.00 0.00 0.00 57 1013.9
20260831230036 93 75 0.0 0.9 0.00 0.00 0.00 57 1013.8
20260831225508 94 94 0.0 1.7 0.00 0.00 0.00 57 1013.9
20260831225015 93 233 0.0 1.7 0.00 0.00 0.00 57 1014.0
20260831224523 93 100 0.0 1.7 0.00 0.00 0.00 58 1013.8
20260831224005 93 122 0.0 1.7 0.00 0.00 0.00 58 1014.0
20260831223515 93 138 0.0 1.7 0.00 0.00 0.00 58 1014.2
20260831223022 93 111 0.0 1.7 0.00 0.00 0.00 58 1014.1
20260831222506 93 134 0.0 0.9 0.00 0.00 0.00 58 1014.0
20260831222015 93 219 0.0 1.7 0.00 0.00 0.00 58 1014.0
20260831221527 93 190 0.0 3.5 0.00 0.00 0.00 58 1014.1
20260831221016 93 213 0.0 3.5 0.00 0.00 0.00 57 1014.1
20260831220511 94 98 0.0 1.7 0.00 0.00 0.00 57 1014.0
20260831220015 94 155 0.0 1.7 0.00 0.00 0.00 56 1014.0
20260831215516 94 295 0.0 1.7 0.00 0.00 0.00 55 1014.1
20260831215013 95 107 0.0 1.7 0.00 0.00 0.00 53 1014.0
20260831214532 95 223 0.0 0.9 0.00 0.00 0.00 50 1014.0
20260831214013 96 170 0.0 0.9 0.00 0.00 0.00 48 1014.1
20260831213507 97 121 0.0 0.9 0.00 0.00 0.00 47 1014.2
20260831213030 97 157 0.0 0.9 0.00 0.00 0.00 46 1014.1
20260831212513 98 63 0.0 1.7 0.00 0.00 0.00 45 1014.0
20260831212007 99 79 0.0 1.7 0.00 0.00 0.00 43 1014.1
20260831211504 100 178 0.0 1.7 0.00 0.00 0.00 43 1014.2
20260831211003 102 349 0.0 0.9 0.00 0.00 0.00 42 1014.0
20260831210504 102 354 0.0 1.7 0.00 0.00 0.00 42 1014.1
20260831210005 101 52 0.0 1.7 0.00 0.00 0.00 44 1014.3
20260831205508 100 205 0.0 1.7 0.00 0.00 0.00 46 1014.3
20260831205004 98 129 0.0 0.9 0.00 0.00 0.00 46 1014.3
20260831204504 97 75 0.0 0.9 0.00 0.00 0.00 47 1014.4
20260831204009 97 77 0.0 0.9 0.00 0.00 0.00 48 1014.6
20260831203504 97 65 0.0 2.6 0.00 0.00 0.00 47 1014.7
20260831203003 98 120 0.0 2.6 0.00 0.00 0.00 45 1014.6
20260831202505 98 78 0.0 2.6 0.00 0.00 0.00 46 1014.6
20260831202004 99 44 0.0 1.7 0.00 0.00 0.00 44 1014.8
20260831201527 99 126 0.0 2.6 0.00 0.00 0.00 45 1014.9
20260831201003 99 115 0.0 2.6 0.00 0.00 0.00 47 1014.9
20260831200502 99 269 0.0 0.9 0.00 0.00 0.00 46 1015.0
20260831200035 98 319 0.0 2.6 0.00 0.00 0.00 47 1015.0
20260831195502 99 47 0.0 2.6 0.00 0.00 0.00 46 1015.2
20260831195002 100 179 0.0 2.6 0.00 0.00 0.00 46 1015.3
20260831194513 100 224 0.0 4.3 0.00 0.00 0.00 47 1015.3
20260831194007 100 88 0.9 5.2 0.00 0.00 0.00 46 1015.3
20260831193510 99 236 1.7 5.2 0.00 0.00 0.00 46 1015.4
20260831193010 99 155 0.0 2.6 0.00 0.00 0.00 47 1015.5
20260831192507 99 40 0.0 2.6 0.00 0.00 0.00 46 1015.5
20260831192010 98 213 0.0 2.6 0.00 0.00 0.00 49 1015.6
20260831191504 97 203 0.9 2.6 0.00 0.00 0.00 50 1015.8
20260831191012 96 98 0.0 0.9 0.00 0.00 0.00 51 1015.9
20260831190506 95 245 0.0 1.7 0.00 0.00 0.00 52 1015.9
20260831190006 95 254 0.0 1.7 0.00 0.00 0.00 52 1016.0
20260831185510 95 73 0.0 1.7 0.00 0.00 0.00 52 1016.1
20260831185005 95 51 0.0 1.7 0.00 0.00 0.00 52 1016.2
20260831184511 95 225 0.0 1.7 0.00 0.00 0.00 52 1016.2
20260831184007 96 54 0.0 1.7 0.00 0.00 0.00 53 1016.3
20260831183502 96 88 0.0 1.7 0.00 0.00 0.00 52 1016.4
20260831183035 96 240 0.0 1.7 0.00 0.00 0.00 53 1016.4
20260831182510 96 206 0.0 0.9 0.00 0.00 0.00 50 1016.4
20260831182003 97 300 0.0 3.5 0.00 0.00 0.00 49 1016.6
20260831181520 98 200 0.0 3.5 0.00 0.00 0.00 49 1016.5
20260831181003 97 217 0.0 3.5 0.00 0.00 0.00 50 1016.6
20260831180503 96 238 0.0 1.7 0.00 0.00 0.00 50 1016.7
20260831180019 95 137 0.0 1.7 0.00 0.00 0.00 52 1016.8
20260831175505 94 113 0.0 0.9 0.00 0.00 0.00 56 1016.7
20260831175013 94 209 0.0 0.9 0.00 0.00 0.00 55 1016.8
20260831174516 95 216 0.0 1.7 0.00 0.00 0.00 52 1017.0
20260831174006 97 323 0.0 1.7 0.00 0.00 0.00 52 1017.0
20260831173510 96 237 0.0 1.7 0.00 0.00 0.00 53 1017.1
20260831173007 96 238 0.0 0.9 0.00 0.00 0.00 55 1017.2
20260831172514 94 210 0.0 1.7 0.00 0.00 0.00 57 1017.2
20260831172008 93 217 0.0 1.7 0.00 0.00 0.00 58 1017.2
20260831171508 93 20 0.0 0.9 0.00 0.00 0.00 58 1017.3
20260831171011 92 200 0.0 0.9 0.00 0.00 0.00 60 1017.3
20260831170508 90 217 0.0 0.9 0.00 0.00 0.00 62 1017.3
20260831170006 90 212 0.0 0.9 0.00 0.00 0.00 64 1017.4
20260831165510 89 208 0.0 0.9 0.00 0.00 0.00 64 1017.5
20260831165005 89 274 0.0 0.9 0.00 0.00 0.00 65 1017.5
20260831164530 89 253 0.0 0.9 0.00 0.00 0.00 65 1017.4
20260831164011 89 252 0.0 0.9 0.00 0.00 0.00 65 1017.5
20260831163503 88 216 0.0 0.9 0.00 0.00 0.00 67 1017.5
20260831163038 88 215 0.0 0.9 0.00 0.00 0.00 67 1017.6
20260831162507 88 212 0.0 0.9 0.00 0.00 0.00 66 1017.6
20260831162002 88 219 0.0 0.9 0.00 0.00 0.00 65 1017.5
20260831161524 88 205 0.0 1.7 0.00 0.00 0.00 66 1017.5
20260831161005 88 86 0.0 1.7 0.00 0.00 0.00 67 1017.7
20260831160514 88 77 0.0 1.7 0.00 0.00 0.00 66 1017.6
20260831160034 87 246 0.0 1.7 0.00 0.00 0.00 67 1017.6
20260831155506 87 213 0.0 1.7 0.00 0.00 0.00 67 1017.6
20260831155014 87 231 0.0 0.9 0.00 0.00 0.00 68 1017.6
20260831154540 86 231 0.0 0.9 0.00 0.00 0.00 70 1017.6
20260831154015 86 229 0.0 0.9 0.00 0.00 0.00 71 1017.5
20260831153510 85 236 0.0 0.9 0.00 0.00 0.00 72 1017.5
20260831153011 85 218 0.0 0.9 0.00 0.00 0.00 71 1017.4
20260831152515 85 219 0.0 1.7 0.00 0.00 0.00 74 1017.4
20260831152009 84 215 0.0 1.7 0.00 0.00 0.00 74 1017.5
20260831151518 84 207 0.0 0.9 0.00 0.00 0.00 76 1017.3
20260831151017 83 204 0.0 0.0 0.00 0.00 0.00 81 1017.3
20260831150508 83 204 0.0 0.0 0.00 0.00 0.00 83 1017.4
20260831150032 82 204 0.0 1.7 0.00 0.00 0.00 83 1017.4
20260831145511 82 205 0.0 1.7 0.00 0.00 0.00 85 1017.4
20260831145007 81 212 0.0 0.9 0.00 0.00 0.00 87 1017.3
20260831144528 80 211 0.0 0.9 0.00 0.00 0.00 89 1017.3
20260831144006 80 212 0.0 0.9 0.00 0.00 0.00 90 1017.3
20260831143503 80 212 0.0 0.9 0.00 0.00 0.00 92 1017.3
20260831143028 79 212 0.0 0.9 0.00 0.00 0.00 93 1017.3
20260831142508 79 203 0.0 0.0 0.00 0.00 0.00 94 1017.2
20260831142018 79 214 0.0 0.0 0.00 0.00 0.00 95 1017.2
20260831141526 78 214 0.0 0.0 0.00 0.00 0.00 95 1017.1
20260831141005 78 214 0.0 0.0 0.00 0.00 0.00 96 1017.2
20260831140512 78 219 0.0 0.0 0.00 0.00 0.00 96 1017.1
20260831140034 78 219 0.0 0.0 0.00 0.00 0.00 96 1017.2
20260831135507 77 219 0.0 0.0 0.00 0.00 0.00 96 1017.1
20260831135013 77 219 0.0 0.0 0.00 0.00 0.00 96 1017.0
20260831134518 77 219 0.0 0.0 0.00 0.00 0.00 96 1016.7
20260831134015 77 219 0.0 0.0 0.00 0.00 0.00 96 1016.7
20260831133509 76 219 0.0 0.0 0.00 0.00 0.00 96 1016.7
20260831133011 76 219 0.0 0.0 0.00 0.00 0.00 96 1016.9
20260831132515 76 219 0.0 0.0 0.00 0.00 0.00 96 1017.0
20260831132012 75 219 0.0 0.0 0.00 0.00 0.00 96 1016.9
20260831131540 75 219 0.0 0.0 0.00 0.00 0.00 96 1016.7
20260831131016 74 219 0.0 0.0 0.00 0.00 0.00 96 1016.6
20260831130507 74 219 0.0 0.0 0.00 0.00 0.00 96 1016.7
20260831130037 74 219 0.0 0.0 0.00 0.00 0.00 96 1016.7
20260831125510 73 219 0.0 0.0 0.00 0.00 0.00 96 1016.6
20260831125008 73 219 0.0 0.0 0.00 0.00 0.00 96 1016.6
20260831124534 73 219 0.0 0.0 0.00 0.00 0.00 96 1016.5
20260831124011 73 219 0.0 0.0 0.00 0.00 0.00 96 1016.4
20260831123515 73 219 0.0 0.0 0.00 0.00 0.00 95 1016.4
20260831123027 73 219 0.0 0.0 0.00 0.00 0.00 96 1016.4
20260831122509 73 219 0.0 0.0 0.00 0.00 0.00 96 1016.3
20260831122014 73 219 0.0 0.0 0.00 0.00 0.00 95 1016.1
20260831121527 73 219 0.0 0.0 0.00 0.00 0.00 95 1016.1
20260831121007 73 219 0.0 0.0 0.00 0.00 0.00 95 1016.0
20260831120502 73 219 0.0 0.0 0.00 0.00 0.00 95 1016.0
20260831120030 73 219 0.0 0.0 0.00 0.00 0.00 95 1015.9
20260831115508 73 219 0.0 0.0 0.00 0.00 0.00 95 1015.9
20260831115014 73 219 0.0 0.0 0.00 0.00 0.00 95 1015.7
20260831114517 73 219 0.0 0.0 0.00 0.00 0.00 95 1015.6
20260831114003 73 219 0.0 0.0 0.00 0.00 0.00 95 1015.7
20260831113512 73 219 0.0 0.0 0.00 0.00 0.00 95 1015.8
20260831113015 73 219 0.0 0.0 0.00 0.00 0.00 95 1015.7
20260831112503 73 219 0.0 0.0 0.00 0.00 0.00 95 1015.7
20260831112011 73 219 0.0 0.0 0.00 0.00 0.00 95 1015.7
20260831111516 73 219 0.0 0.0 0.00 0.00 0.00 95 1015.7
20260831111015 73 219 0.0 0.0 0.00 0.00 0.00 95 1015.9
20260831110509 73 219 0.0 0.0 0.00 0.00 0.00 95 1015.8
20260831110010 73 219 0.0 0.0 0.00 0.00 0.00 95 1015.7
20260831105510 73 219 0.0 0.0 0.00 0.00 0.00 95 1015.7
20260831105006 73 219 0.0 0.0 0.00 0.00 0.00 94 1015.7
20260831104530 73 219 0.0 0.0 0.00 0.00 0.00 94 1015.7
20260831104009 73 219 0.0 0.0 0.00 0.00 0.00 94 1015.7
20260831103503 73 219 0.0 0.0 0.00 0.00 0.00 94 1015.7
20260831103028 73 219 0.0 0.0 0.00 0.00 0.00 94 1015.7
20260831102507 74 219 0.0 0.0 0.00 0.00 0.00 94 1015.6
20260831102004 74 219 0.0 0.0 0.00 0.00 0.00 94 1015.8
20260831101528 74 219 0.0 0.0 0.00 0.00 0.00 94 1015.8
20260831101008 74 219 0.0 0.0 0.00 0.00 0.00 94 1015.8
20260831100519 74 219 0.0 0.0 0.00 0.00 0.00 94 1015.8
20260831100025 74 219 0.0 0.0 0.00 0.00 0.00 94 1015.8
20260831095507 74 219 0.0 0.0 0.00 0.00 0.00 94 1015.8
20260831095013 74 219 0.0 0.0 0.00 0.00 0.00 94 1015.7
20260831094518 74 219 0.0 0.0 0.00 0.00 0.00 94 1015.7
20260831094006 74 219 0.0 0.0 0.00 0.00 0.00 94 1015.7
20260831093514 74 219 0.0 0.0 0.00 0.00 0.00 94 1015.7
20260831093016 74 219 0.0 0.0 0.00 0.00 0.00 94 1015.7
20260831092515 74 219 0.0 0.0 0.00 0.00 0.00 94 1015.7
20260831092013 74 219 0.0 0.0 0.00 0.00 0.00 93 1015.6
20260831091514 75 219 0.0 0.0 0.00 0.00 0.00 93 1015.6
20260831091014 75 219 0.0 0.0 0.00 0.00 0.00 93 1015.6
20260831090510 75 219 0.0 0.0 0.00 0.00 0.00 93 1015.7
20260831090038 75 219 0.0 0.0 0.00 0.00 0.00 93 1015.7
20260831085514 75 219 0.0 0.0 0.00 0.00 0.00 93 1015.5
20260831085008 75 219 0.0 0.0 0.00 0.00 0.00 93 1015.6
20260831084534 75 219 0.0 0.0 0.00 0.00 0.00 93 1015.6
20260831084009 75 219 0.0 0.0 0.00 0.00 0.00 93 1015.6
20260831083507 75 219 0.0 0.0 0.00 0.00 0.00 92 1015.6
20260831083029 75 219 0.0 0.0 0.00 0.00 0.00 92 1015.7
20260831082509 75 219 0.0 0.0 0.00 0.00 0.00 92 1015.7
20260831082015 75 219 0.0 0.0 0.00 0.00 0.00 92 1015.8
20260831081528 76 219 0.0 0.0 0.00 0.00 0.00 92 1015.7
20260831081011 76 219 0.0 0.0 0.00 0.00 0.00 92 1015.8
20260831080518 76 219 0.0 0.0 0.00 0.00 0.00 91 1015.8
20260831080033 76 219 0.0 0.0 0.00 0.00 0.00 91 1015.7
20260831075506 76 219 0.0 0.0 0.00 0.00 0.00 91 1015.8
20260831075016 76 219 0.0 0.0 0.00 0.00 0.00 91 1015.8
20260831074523 76 219 0.0 0.0 0.00 0.00 0.00 91 1015.9
20260831074015 77 219 0.0 0.0 0.00 0.00 0.00 91 1015.7
20260831073514 77 219 0.0 0.0 0.00 0.00 0.00 91 1015.7
20260831073019 77 219 0.0 0.0 0.00 0.00 0.00 91 1015.8
20260831072516 77 219 0.0 0.0 0.00 0.00 0.00 90 1015.9
20260831072013 77 219 0.0 0.0 0.00 0.00 0.00 90 1015.7
20260831071514 77 219 0.0 0.0 0.00 0.00 0.00 90 1015.7
20260831071014 77 219 0.0 0.0 0.00 0.00 0.00 90 1015.9
20260831070514 77 219 0.0 0.0 0.00 0.00 0.00 90 1015.9
20260831070033 77 219 0.0 0.0 0.00 0.00 0.00 90 1015.8
20260831065514 77 219 0.0 0.0 0.00 0.00 0.00 89 1015.9
20260831065010 77 219 0.0 0.0 0.00 0.00 0.00 89 1016.0
20260831064532 77 219 0.0 0.0 0.00 0.00 0.00 89 1016.0
20260831064013 77 219 0.0 0.0 0.00 0.00 0.00 88 1016.0
20260831063518 78 219 0.0 0.0 0.00 0.00 0.00 87 1016.0
20260831063030 78 219 0.0 0.0 0.00 0.00 0.00 87 1016.1
20260831062511 78 219 0.0 0.0 0.00 0.00 0.00 87 1016.0
20260831062017 78 219 0.0 0.0 0.00 0.00 0.00 87 1016.0
20260831061503 78 219 0.0 0.0 0.00 0.00 0.00 87 1015.9
20260831061014 78 219 0.0 0.0 0.00 0.00 0.00 86 1016.0
20260831060504 78 219 0.0 0.0 0.00 0.00 0.00 86 1016.0
20260831060004 79 219 0.0 0.0 0.00 0.00 0.00 86 1016.0
20260831055508 79 219 0.0 0.0 0.00 0.00 0.00 85 1016.0
20260831055004 79 219 0.0 0.0 0.00 0.00 0.00 85 1016.0